Regional Weather Roundup
Issued by NWS

Home | Current Version | Previous Version | Text Only | Print | Product List | Glossary Off
Versions: 1 2 3 4 5 6 7 8 9 10 11 12 13 14 15 16 17 18 19 20 21 22 23 24 25 26 27 28 29 30 31 32 33 34 35 36 37 38 39 40 41 42 43 44 45 46 47 48 49 50

000
ASUS43 KIND 220100
RWRIN

WEATHER ROUNDUP FOR INDIANA
NATIONAL WEATHER SERVICE INDIANAPOLIS IN
900 PM EDT MON AUG 21 2017

NOTE: "FAIR" INDICATES FEW OR NO CLOUDS BELOW 12,000 FEET WITH NO
SIGNIFICANT WEATHER AND/OR OBSTRUCTIONS TO VISIBILITY.

* - STATION DOES NOT REPORT WEATHER SUCH AS PRECIPITATION OR FOG.

+ - STATION NOT QUALITY CONTROLLED BY THE NATIONAL WEATHER SERVICE.
    USE DATA WITH CAUTION...ESPECIALLY DEWPOINT AND RELATIVE
    HUMIDITY OBSERVATIONS.

INZ001>003-010>013-019-020-220200-
NORTHWEST INDIANA

CITY           SKY/WX    TMP DP  RH WIND       PRES   REMARKS
GARY /AIRPORT/ PTCLDY    81  72  74 SW6       29.99F
MICHIGAN CITY+ CLOUDY    77  70  78 SW5       30.01F
MONTICELLO +   MOCLDY    78  71  78 S9        30.03R

$$

LMZ046-743>745-220200-
SOUTHERN LAKE MICHIGAN

STATION/POSITION TIME  TEMP    WIND        PRES    WAVE
                       AIR SEA DIR/SP/G            HT
                 (UTC) (F)     (DEG/KT/KT) (MB)    (FT)
BURNS HARBOR     0040   81     220/ 11/ 15 1016.3F
MICHIGAN CITY    0030   80     200/  7/ 10   N/A
5NW MICH CITY    0050   79 76  220/ 10/ 12   N/A     1

$$

INZ004-005-014>016-021>024-220200-
NORTH CENTRAL INDIANA

CITY           SKY/WX    TMP DP  RH WIND       PRES   REMARKS
ELKHART        CLOUDY    79  70  73 SW9       30.00F
GOSHEN         CLOUDY    77  70  79 S6        30.01F
PERU/GRISSOM   MOCLDY    76  72  87 S7        30.04S
SOUTH BEND     CLOUDY    79  72  79 SW8       30.02S

$$

INZ006>009-017-018-025>027-220200-
NORTHEAST INDIANA

CITY           SKY/WX    TMP DP  RH WIND       PRES   REMARKS
FORT WAYNE     MOCLDY    77  68  73 SW7       30.04F

$$

INZ028-029-035-036-043>045-051>053-220200-
WEST CENTRAL INDIANA

CITY           SKY/WX    TMP DP  RH WIND       PRES   REMARKS
LAFAYETTE      CLOUDY    77  72  84 SW3       30.03S
TERRE HAUTE    CLOUDY    74  70  87 S3        30.06F

$$

INZ030>032-037>040-046>048-054>057-064-065-220200-
CENTRAL INDIANA

CITY           SKY/WX    TMP DP  RH WIND       PRES   REMARKS
COLUMBUS       CLEAR     75  72  88 CALM      30.07S
GREENWOOD *+   CLOUDY    75  70  85 S3        30.08F
INDIANAPOLIS   CLOUDY    76  72  87 S5        30.06S
-EAGLE CREEK   CLOUDY    78  70  76 S5        30.06S
KOKOMO +       MOCLDY    76  69  79 SW8       30.06S
MT COMFORT *+  CLOUDY    73  70  88 S3        30.08S
SHELBYVILLE    CLOUDY    74  70  87 SE5       30.07S

$$

INZ033-034-041-042-049-050-058-059-220200-
EAST CENTRAL INDIANA

CITY           SKY/WX    TMP DP  RH WIND       PRES   REMARKS
MUNCIE         PTCLDY    79  70  74 SW10      30.07R
RICHMOND +     CLOUDY    72  72 100 SW6       30.11S

$$

INZ060-061-067>069-081>083-085>088-220200-
SOUTHWEST INDIANA

CITY           SKY/WX    TMP DP  RH WIND       PRES   REMARKS
EVANSVILLE     MOCLDY    78  69  73 N5        30.10R
HUNTINGBURG +  CLOUDY    76  71  85 CALM      30.08F

$$

INZ062-063-066-070>080-084-089>092-220200-
SOUTH CENTRAL AND SOUTHEAST INDIANA

CITY           SKY/WX    TMP DP  RH WIND       PRES   REMARKS
BLOOMINGTON    CLOUDY    75  71  87 S3        30.08F
MADISON *+     CLOUDY    77  72  83 CALM      30.11S
SEYMOUR +      CLOUDY    79  72  78 CALM      30.07S

$$




USA.gov is the U.S. government's official web portal to all federal, state and local government web resources and services.